Location: Bun Machan
(52.1403°N, 7.3744°W)
Time: 18:08:07
(UTC+00:00)

X-37B - Pass Details

Date: 29 June 2021
Orbit: 383 x 392 km, 45.0° (Epoch: 01 July)

Event Time Altitude Azimuth Distance (km) Brightness Sun altitude
Rises 22:39:12 0° 259° (W) 2,258 4.7 -10.7°
Reaches altitude 10° 22:41:42 10° 239° (WSW) 1,403 3.4 -10.8°
Maximum altitude 22:43:53 17° 195° (SSW) 1,047 2.3 -11.0°
Enters shadow 22:44:32 16° 179° (S) 1,083 2.3 -11.0°
